Skip Page Navigation
NASA JPL Caltech
NASA Logo - Jet Propulsion Laboratory + View the NASA Portal
+ Center for Near-Earth Object Studies
JPL Home Earth Solar System Stars & Galaxies Technology
JPL Solar System Dynamics
BODIES ORBITS EPHEMERIDES TOOLS PHYSICAL DATA DISCOVERY FAQ SITE MAP
JPL Small-Body Database Browser
Search: [ help ]  
190936 (2001 VZ25)
Classification: Main-belt Asteroid          SPK-ID: 2190936
Ephemeris | Orbit Diagram | Orbital Elements | Mission Design | Physical Parameters | Discovery Circumstances ]

[ show orbit diagram ]
Orbital Elements at Epoch 2459200.5 (2020-Dec-17.0) TDB
Reference: JPL 17 (heliocentric ecliptic J2000)
 Element Value Uncertainty (1-sigma)   Units 
e .1903057031093035 3.6318e-08  
a 2.403032297144068 8.977e-09 au
q 1.945721546241701 8.7532e-08 au
i 3.510514660874337 4.3659e-06 deg
node 90.47641339655097 7.7181e-05 deg
peri 312.7033875495774 7.8627e-05 deg
M 54.49109099919715 1.5767e-05 deg
tp 2458994.550452961602
(2020-May-25.05045296)
5.8934e-05 TDB
period 1360.623095891318
3.73
7.6243e-06
2.087e-08
d
yr
n .264584660577271 1.4826e-09 deg/d
Q 2.860343048046434 1.0685e-08 au
  Orbit Determination Parameters
   # obs. used (total)      451  
   data-arc span      7059 days (19.33 yr)  
   first obs. used      2001-10-23  
   last obs. used      2021-02-19  
   planetary ephem.      DE441  
   SB-pert. ephem.      SB441-N16  
   condition code      0  
   norm. resid. RMS      .55483  
   source      ORB  
   producer      Otto Matic  
   solution date      2021-Apr-13 22:09:43  

Additional Information
 Earth MOID = .955783 au 
 Jupiter MOID = 2.54066 au 
 T_jup = 3.497 
[ show covariance matrix ]

Ephemeris | Orbit Diagram | Orbital Elements | Mission Design | Physical Parameters | Discovery Circumstances ]

Physical Parameter Table
Parameter Symbol Value Units Sigma Reference Notes
absolute magnitude H 16.5   n/a MPO440059  

190936 (2001 VZ25)          Discovered 2001-Nov-09 by LINEAR at Socorro
Reference: 20080917/Numbers.arcLast Updated: 2008-09-19

Alternate Designations
 2001 VZ25 = 2001 UG152 
Ephemeris | Orbit Diagram | Orbital Elements | Mission Design | Physical Parameters | Discovery Circumstances ]
ABOUT SSD CREDITS/AWARDS PRIVACY/COPYRIGHT GLOSSARY LINKS
FirstGov 2021-Apr-17 03:31 UT
(server date/time)  
NASA Home Page
Site Manager:   Ryan S. Park
Webmaster  Alan B. Chamberlin